{"data":{"norad_id":62366,"epoch":"2026-09-22T09:31:37.147872Z","epoch_age_seconds":148094,"freshness":"FRESH","line1":"1 62366U 24245B   26265.39695773 -.00000031  00000+0  66656-4 0  9997","line2":"2 62366  44.9793 249.1402 0002657 131.6342 228.4718 13.99245012 89941","mean_motion":13.99245012,"eccentricity":0.0002657,"inclination_deg":44.9793,"raan_deg":249.1402,"arg_perigee_deg":131.6342,"mean_anomaly_deg":228.4718,"bstar":6.6656e-5,"rev_number":8994,"period_min":102.9126412923,"perigee_km":894.47786001626,"apogee_km":898.34355466794,"semimajor_km":7274.5477073421,"source":"CELESTRAK","updated_at":"2026-09-23T09:00:21.388969Z"}}